Weather History for Lander, WY

Change the Weather History Date:

Wednesday, January 2, 2013

  Actual Average Record
Temperature  
Mean Temperature 18 °F 21 °F  
Max Temperature 30 °F 33 °F 60 °F (1918)
Min Temperature 6 °F 9 °F -29 °F (1910)
Degree Days  
Heating Degree Days 47 44  
Month to date heating degree days 104 88  
Since 1 July heating degree days 2879 3334  
Cooling Degree Days 0 0  
Month to date cooling degree days 0 0  
Year to date cooling degree days 0 0  
Moisture  
Dew Point 4 °F    
Average Humidity 62    
Maximum Humidity 83    
Minimum Humidity 41    
Precipitation  
Precipitation 0.00 in 0.01 in 0.71 in (1972)
Month to date precipitation 0.00 0.03  
Year to date precipitation 0.00 0.03  
Snow  
Snow 0.00 in 0.20 in - ()
Month to date snowfall 0.0 0.5  
Since 1 July snowfall 15.7 36.2  
Snow Depth 3.00 in    
Sea Level Pressure  
Sea Level Pressure 30.42 in    
Wind  
Wind Speed 2 mph (SW)    
Max Wind Speed 8 mph    
Max Gust Speed 9 mph    
Visibility 10 miles    
Events      
T = Trace of Precipitation, MM = Missing Value Source: NWS Daily Summary

Daily Weather History Graph

Daily Weather History Graph

Search for Another Location

Airport:

Trip Planner

Search our weather history database for the weather conditions in past years. The results will help you decide how hot, cold, wet, or windy it might be!

Date:

Astronomy

Jan. 02, 2013 Rise Set
Actual Time 7:45 AM MST 4:52 PM MST
Civil Twilight 7:13 AM MST 5:24 PM MST
Nautical Twilight 6:38 AM MST 6:00 PM MST
Astronomical Twilight 6:03 AM MST 6:34 PM MST
Moon 10:37 PM MST (1/2) 10:21 AM MST (1/2)
Length of Visible Light 10h 11m
Length of Day
9h 07m
Waning Gibbous, 74% of the Moon is Illuminated
Jan 2
Waning Gibbous
Jan 4
Last Quarter
Jan 11
New
Jan 18
First Quarter
Jan 26
Full

Hourly Weather History & Observations

Time (MST) Temp. Windchill Dew Point Humidity Pressure Visibility Wind Dir Wind Speed Gust Speed Precip Events Conditions
12:53 AM 16.0 °F 10.4 °F 8.1 °F 71% 30.36 in 10.0 mi SSW 3.5 mph - N/A   Mostly Cloudy
1:53 AM 16.0 °F - 8.1 °F 71% 30.36 in 10.0 mi Calm Calm - N/A   Partly Cloudy
2:53 AM 14.0 °F 8.2 °F 5.0 °F 67% 30.38 in 10.0 mi West 3.5 mph - N/A   Partly Cloudy
3:53 AM 12.9 °F 3.8 °F 5.0 °F 71% 30.38 in 10.0 mi SW 5.8 mph - N/A   Partly Cloudy
4:53 AM 9.0 °F - 5.0 °F 84% 30.43 in 10.0 mi Calm Calm - N/A   Clear
5:53 AM 10.0 °F - 5.0 °F 80% 30.45 in 10.0 mi Calm Calm - N/A   Clear
6:53 AM 10.0 °F 0.4 °F 1.9 °F 70% 30.46 in 10.0 mi SW 5.8 mph - N/A   Partly Cloudy
7:53 AM 6.1 °F -0.9 °F 1.9 °F 83% 30.45 in 10.0 mi SE 3.5 mph - N/A   Clear
8:53 AM 14.0 °F - 5.0 °F 67% 30.42 in 10.0 mi Calm Calm - N/A   Clear
9:53 AM 12.9 °F 6.9 °F 3.9 °F 67% 30.45 in 10.0 mi NW 3.5 mph - N/A   Clear
10:53 AM 17.1 °F 8.7 °F 6.1 °F 62% 30.42 in 10.0 mi WSW 5.8 mph - N/A   Clear
11:53 AM 21.0 °F - 10.0 °F 63% 30.37 in 9.0 mi Calm Calm - N/A   Clear
12:53 PM 24.1 °F - 10.9 °F 57% 30.34 in 10.0 mi Calm Calm - N/A   Clear
1:53 PM 28.9 °F - 9.0 °F 43% 30.31 in 10.0 mi Calm Calm - N/A   Clear
2:53 PM 28.0 °F - 9.0 °F 45% 30.34 in 10.0 mi Calm Calm - N/A   Clear
3:53 PM 27.0 °F 23.0 °F 10.0 °F 49% 30.35 in 10.0 mi East 3.5 mph - N/A   Clear
4:53 PM 21.9 °F 17.2 °F 1.9 °F 42% 30.40 in 10.0 mi SW 3.5 mph - N/A   Clear
5:53 PM 18.0 °F 12.7 °F -0.0 °F 45% 30.44 in 10.0 mi SW 3.5 mph - N/A   Clear
6:53 PM 16.0 °F - 1.9 °F 54% 30.47 in 10.0 mi Calm Calm - N/A   Clear
7:53 PM 15.1 °F 9.4 °F 1.0 °F 54% 30.50 in 10.0 mi SSW 3.5 mph - N/A   Clear
8:53 PM 12.9 °F - -2.9 °F 49% 30.48 in 10.0 mi Calm Calm - N/A   Clear
9:53 PM 12.0 °F - -4.0 °F 49% 30.49 in 10.0 mi Calm Calm - N/A   Clear
10:53 PM 12.0 °F 2.7 °F -5.1 °F 46% 30.49 in 10.0 mi West 5.8 mph - N/A   Clear
11:53 PM 10.9 °F - -4.0 °F 51% 30.47 in 10.0 mi Calm Calm - N/A   Clear